This is the latest recevied weather packets stored in our database for station/object NY3Q. If no packets are shown the sender has not sent any weather packets the latest 10 day(s).
| Time | Temp. | Humidity | Pressure | Rain* | Wind** | Luminosity | Snow |
|---|---|---|---|---|---|---|---|
| 1778177099 | 30.56° C | 58% | 1014.3 hPa | 0 mm | - | 640 W/m² | - |
| 1778176795 | 30° C | 58% | 1014.4 hPa | 0 mm | - | 318 W/m² | - |
| 1778176492 | 30° C | 57% | 1014.6 hPa | 0 mm | - | 244 W/m² | - |
| 1778176190 | 30.56° C | 52% | 1014.6 hPa | 0 mm | - | 250 W/m² | - |
| 1778175886 | 30.56° C | 48% | 1014.9 hPa | 0 mm | - | 225 W/m² | - |
| 1778175584 | 30.56° C | 47% | 1014.8 hPa | 0 mm | - | 456 W/m² | - |
| 1778175281 | 30.56° C | 48% | 1014.8 hPa | 0 mm | - | 182 W/m² | - |
| 1778174978 | 31.11° C | 48% | 1015.1 hPa | 0 mm | - | 239 W/m² | - |
| 1778174674 | 31.11° C | 46% | 1015.1 hPa | 0 mm | - | 293 W/m² | - |
| 1778174371 | 31.67° C | 46% | 1014.9 hPa | 0 mm | - | 282 W/m² | - |
| 1778174067 | 31.67° C | 47% | 1014.8 hPa | 0 mm | - | 372 W/m² | - |
| 1778173764 | 31.67° C | 45% | 1014.9 hPa | 0 mm | - | 581 W/m² | - |
| 1778173460 | 31.67° C | 47% | 1015 hPa | 0 mm | - | 436 W/m² | - |
| 1778173157 | 31.67° C | 46% | 1014.9 hPa | 0 mm | - | 358 W/m² | - |
| 1778172853 | 31.67° C | 46% | 1015 hPa | 0 mm | - | 677 W/m² | - |
| 1778172549 | 31.67° C | 46% | 1015.1 hPa | 0 mm | - | 625 W/m² | - |
| 1778172246 | 31.67° C | 47% | 1015.2 hPa | 0 mm | - | 606 W/m² | - |
| 1778171943 | 31.67° C | 47% | 1015.2 hPa | 0 mm | - | 609 W/m² | - |
| 1778171641 | 31.67° C | 48% | 1015.3 hPa | 0 mm | - | 572 W/m² | - |
| 1778171337 | 31.67° C | 49% | 1015.2 hPa | 0 mm | - | 475 W/m² | - |
| 1778171032 | 31.67° C | 50% | 1015.3 hPa | 0 mm | - | 639 W/m² | - |
| 1778170730 | 31.67° C | 51% | 1015.4 hPa | 0 mm | - | 565 W/m² | - |
| 1778170426 | 31.67° C | 51% | 1015.5 hPa | 0 mm | - | 609 W/m² | - |
| 1778170123 | 31.67° C | 51% | 1015.4 hPa | 0 mm | - | 642 W/m² | - |
| 1778169818 | 31.67° C | 53% | 1015.4 hPa | 0 mm | - | 613 W/m² | - |
* Rain latest hour (hover to see other rain measurements)
** Current wind speed in m/s (hover to see current wind gust speed)